This demonstration page uses our WeatherBlox Daily Observations layout. Learn more.

Left ArrowRight Arrow

53.62937, 11.41316

Hourly Observations for October 15, 2019

Temp ( °F °C ) Dew Point ( °F °C ) Humidity (%) Winds ( mph kmh ) Pressure ( in mb ) Visibility ( mi km ) Precip ( " mm )
6:50 am 06:50 Mostly Clear 52 11 50 10 94 94 E 3 6 29.74 1007 7 11 N/A
7:20 am 07:20 Mostly Clear 48 9 46 8 94 94 ENE 6 9 29.74 1007 7 11 N/A
7:50 am 07:50 Mostly Sunny 50 10 50 10 100 100 E 5 7 29.71 1006 7 11 N/A
8:20 am 08:20 Mostly Sunny 50 10 50 10 100 100 ESE 2 4 29.74 1007 7 11 N/A
8:50 am 08:50 Mostly Sunny 54 12 52 11 94 94 SE 5 7 29.74 1007 7 11 N/A
9:20 am 09:20 Mostly Sunny 54 12 52 11 94 94 VRB 1 2 29.74 1007 7 11 N/A
9:50 am 09:50 Mostly Sunny 55 13 54 12 94 94 SE 5 7 29.71 1006 7 11 N/A
10:20 am 10:20 Mostly Sunny 57 14 54 12 88 88 SSE 5 7 29.71 1006 7 11 N/A
10:50 am 10:50 Mostly Sunny 59 15 54 12 82 82 SSE 5 7 29.71 1006 7 11 N/A
11:20 am 11:20 Mostly Sunny 61 16 55 13 83 83 SE 3 6 29.71 1006 7 11 N/A
11:50 am 11:50 Mostly Sunny 63 17 55 13 77 77 SE 5 7 29.71 1006 7 11 N/A
12:20 pm 12:20 Mostly Sunny 63 17 55 13 77 77 SE 5 7 29.71 1006 7 11 N/A
12:50 pm 12:50 Mostly Sunny 64 18 57 14 78 78 S 3 6 29.71 1006 7 11 N/A
1:20 pm 13:20 Mostly Sunny 66 19 57 14 73 73 SSW 3 6 29.71 1006 7 11 N/A
1:50 pm 13:50 Mostly Sunny 68 20 59 15 73 73 WSW 5 7 29.71 1006 7 11 N/A
2:20 pm 14:20 Mostly Sunny 68 20 57 14 69 69 WSW 6 9 29.68 1005 7 11 N/A
2:50 pm 14:50 Mostly Sunny 68 20 57 14 69 69 VRB 2 4 29.68 1005 7 11 N/A
3:20 pm 15:20 Mostly Sunny 68 20 57 14 69 69 W 7 11 29.68 1005 7 11 N/A
3:50 pm 15:50 Mostly Sunny 68 20 57 14 69 69 W 3 6 29.68 1005 7 11 N/A
4:20 pm 16:20 Mostly Sunny 68 20 59 15 73 73 VRB 2 4 29.68 1005 7 11 N/A
4:50 pm 16:50 Mostly Sunny 68 20 59 15 73 73 VRB 2 4 29.68 1005 7 11 N/A
5:20 pm 17:20 Mostly Sunny 68 20 59 15 73 73 VRB 1 2 29.68 1005 7 11 N/A
5:50 pm 17:50 Mostly Sunny 66 19 61 16 83 83 VRB 1 2 29.68 1005 7 11 N/A
6:20 pm 18:20 Partly Cloudy with Patchy Fog 63 17 59 15 88 88 WSW 1 2 29.68 1005 30 48 N/A
6:50 pm 18:50 Mostly Clear with Areas of Fog 61 16 59 15 94 94 VRB 1 2 29.71 1006 30 48 N/A
7:20 pm 19:20 Mostly Clear with Areas of Fog 59 15 57 14 94 94 VRB 1 2 29.71 1006 30 48 N/A
7:50 pm 19:50 Mostly Clear with Areas of Fog 59 15 57 14 94 94 VRB 1 2 29.71 1006 30 48 N/A
8:20 pm 20:20 Mostly Clear with Areas of Fog 57 14 55 13 94 94 SSE 1 2 29.71 1006 30 48 N/A
8:50 pm 20:50 Mostly Clear with Areas of Fog 55 13 55 13 100 100 VRB 1 2 29.71 1006 30 48 N/A

Powered by AerisWeather